RYR66GL LIMC-LIEA

Flight info

Callsign RYR66GL
Flight time 0h 58m
Altitude 35000
Route LAGEN DCT ERTEV DCT TORTU DCT OKROK DCT AJO M194 REVDO
Aircraft B738/M-SDE2E3FGHIRWXY/LB1

Departure

Time 2026-05-08 08:41
Airport Milan Malpensa International Airport (LIMC)

Arrival

Time 2026-05-08 09:39
Airport Alghero-Fertilia Airport (LIEA)
Time Latitude Longitude Altitude Speed Heading
2026-05-08 07:57 45.62864 8.71588 733 ft 0 kts 169°
2026-05-08 07:58 45.62864 8.71587 733 ft 0 kts 169°
2026-05-08 08:27 45.62870 8.71586 733 ft 2 kts 168°
2026-05-08 08:27 45.62886 8.71581 733 ft 2 kts 167°
2026-05-08 08:27 45.62902 8.71575 732 ft 2 kts 164°
2026-05-08 08:28 45.62909 8.71572 733 ft 0 kts 161°
2026-05-08 08:29 45.62922 8.71565 734 ft 2 kts 149°
2026-05-08 08:29 45.62932 8.71548 733 ft 2 kts 92°
2026-05-08 08:30 45.62932 8.71536 734 ft 0 kts 81°
2026-05-08 08:31 45.62936 8.71571 734 ft 8 kts 80°
2026-05-08 08:31 45.62950 8.71684 734 ft 14 kts 80°
2026-05-08 08:32 45.62885 8.71769 733 ft 14 kts 167°
2026-05-08 08:32 45.62789 8.71794 731 ft 14 kts 170°
2026-05-08 08:32 45.62696 8.71819 731 ft 14 kts 169°
2026-05-08 08:32 45.62595 8.71845 729 ft 16 kts 169°
2026-05-08 08:33 45.62484 8.71876 725 ft 17 kts 168°
2026-05-08 08:33 45.62363 8.71912 723 ft 18 kts 169°
2026-05-08 08:33 45.62240 8.71945 719 ft 18 kts 169°
2026-05-08 08:33 45.62161 8.71968 719 ft 18 kts 169°
2026-05-08 08:34 45.62027 8.72005 717 ft 21 kts 169°
2026-05-08 08:34 45.61871 8.72048 712 ft 24 kts 169°
2026-05-08 08:34 45.61700 8.72096 703 ft 25 kts 169°
2026-05-08 08:34 45.61534 8.72142 702 ft 23 kts 169°
2026-05-08 08:35 45.61378 8.72186 693 ft 23 kts 169°
2026-05-08 08:35 45.61226 8.72228 691 ft 22 kts 169°
2026-05-08 08:35 45.61074 8.72271 691 ft 23 kts 169°
2026-05-08 08:35 45.60912 8.72316 690 ft 23 kts 169°
2026-05-08 08:36 45.60757 8.72360 685 ft 22 kts 169°
2026-05-08 08:36 45.60637 8.72470 680 ft 22 kts 99°
2026-05-08 08:36 45.60621 8.72683 684 ft 21 kts 96°
2026-05-08 08:36 45.60605 8.72889 683 ft 21 kts 96°
2026-05-08 08:37 45.60590 8.73090 682 ft 20 kts 96°
2026-05-08 08:37 45.60627 8.73267 682 ft 19 kts 33°
2026-05-08 08:37 45.60749 8.73340 678 ft 19 kts 22°
2026-05-08 08:37 45.60868 8.73407 685 ft 18 kts 13°
2026-05-08 08:38 45.60990 8.73384 685 ft 17 kts 348°
2026-05-08 08:38 45.61107 8.73351 689 ft 17 kts 348°
2026-05-08 08:38 45.61221 8.73320 694 ft 16 kts 349°
2026-05-08 08:38 45.61330 8.73290 697 ft 16 kts 349°
2026-05-08 08:39 45.61448 8.73258 695 ft 18 kts 349°
2026-05-08 08:39 45.61574 8.73225 697 ft 13 kts 359°
2026-05-08 08:39 45.61624 8.73311 700 ft 12 kts 77°
2026-05-08 08:39 45.61635 8.73429 699 ft 12 kts 98°
2026-05-08 08:40 45.61594 8.73536 697 ft 13 kts 115°
2026-05-08 08:40 45.61595 8.73682 697 ft 18 kts 74°
2026-05-08 08:40 45.61676 8.73723 699 ft 13 kts 349°
2026-05-08 08:40 45.61849 8.73675 699 ft 53 kts 349°
2026-05-08 08:41 45.62445 8.73511 721 ft 119 kts 349°
2026-05-08 08:41 45.63445 8.73232 744 ft 171 kts 350°
2026-05-08 08:41 45.64674 8.72918 1297 ft 179 kts 350°
2026-05-08 08:41 45.65869 8.72707 2242 ft 171 kts
2026-05-08 08:42 45.67090 8.72729 2856 ft 183 kts
2026-05-08 08:42 45.68431 8.72711 3320 ft 203 kts
2026-05-08 08:42 45.69906 8.72658 3660 ft 222 kts
2026-05-08 08:42 45.71484 8.72572 4122 ft 232 kts 351°
2026-05-08 08:43 45.72953 8.71526 4607 ft 248 kts 311°
2026-05-08 08:43 45.73731 8.69363 5402 ft 249 kts 282°
2026-05-08 08:43 45.73642 8.66909 6201 ft 248 kts 251°
2026-05-08 08:43 45.72942 8.64666 7001 ft 248 kts 242°
2026-05-08 08:44 45.72190 8.62465 7866 ft 245 kts 244°
2026-05-08 08:44 45.71486 8.60250 8645 ft 246 kts 244°
2026-05-08 08:44 45.70616 8.58045 8969 ft 268 kts 237°
2026-05-08 08:44 45.69576 8.55733 9455 ft 281 kts 236°
2026-05-08 08:45 45.68485 8.53382 10178 ft 285 kts 230°
2026-05-08 08:45 45.66939 8.51591 10508 ft 304 kts 206°
2026-05-08 08:45 45.64919 8.50382 10739 ft 324 kts 201°
2026-05-08 08:45 45.62788 8.49181 11274 ft 333 kts 201°
2026-05-08 08:46 45.60626 8.47948 11995 ft 336 kts 202°
2026-05-08 08:46 45.58461 8.46695 12777 ft 339 kts 202°
2026-05-08 08:46 45.56268 8.45418 13602 ft 341 kts 202°
2026-05-08 08:46 45.54042 8.44165 14271 ft 346 kts 200°
2026-05-08 08:47 45.51766 8.43013 14996 ft 349 kts 200°
2026-05-08 08:47 45.49421 8.41870 15726 ft 352 kts 199°
2026-05-08 08:47 45.47123 8.40757 16439 ft 356 kts 200°
2026-05-08 08:47 45.44770 8.39611 17177 ft 359 kts 200°
2026-05-08 08:48 45.42399 8.38451 17914 ft 362 kts 200°
2026-05-08 08:48 45.40012 8.37277 18590 ft 365 kts 200°
2026-05-08 08:48 45.37605 8.36091 19186 ft 368 kts 200°
2026-05-08 08:48 45.35174 8.34892 19792 ft 371 kts 200°
2026-05-08 08:49 45.32726 8.33685 20393 ft 374 kts 200°
2026-05-08 08:49 45.30263 8.32471 20975 ft 377 kts 200°
2026-05-08 08:49 45.27770 8.31243 21558 ft 380 kts 200°
2026-05-08 08:49 45.25260 8.30008 22097 ft 384 kts 200°
2026-05-08 08:50 45.22723 8.28761 22640 ft 388 kts 200°
2026-05-08 08:50 45.20160 8.27502 23198 ft 391 kts 200°
2026-05-08 08:50 45.17577 8.26235 23726 ft 394 kts 200°
2026-05-08 08:50 45.14980 8.24962 24210 ft 396 kts 200°
2026-05-08 08:51 45.12358 8.23761 24746 ft 397 kts 194°
2026-05-08 08:51 45.09595 8.23512 25246 ft 402 kts 176°
2026-05-08 08:51 45.06851 8.24331 25774 ft 405 kts 168°
2026-05-08 08:51 45.04131 8.25376 26257 ft 407 kts 167°
2026-05-08 08:52 45.01397 8.26460 26692 ft 409 kts 167°
2026-05-08 08:52 44.98648 8.27548 27123 ft 411 kts 168°
2026-05-08 08:52 44.95888 8.28626 27582 ft 412 kts 168°
2026-05-08 08:52 44.93117 8.29695 28026 ft 413 kts 168°
2026-05-08 08:53 44.90334 8.30755 28417 ft 416 kts 169°
2026-05-08 08:53 44.87538 8.31813 28822 ft 417 kts 169°
2026-05-08 08:53 44.84735 8.32870 29296 ft 417 kts 169°
2026-05-08 08:53 44.81935 8.33924 29736 ft 417 kts 169°
2026-05-08 08:54 44.79140 8.34975 30257 ft 414 kts 169°
2026-05-08 08:54 44.76363 8.36019 30763 ft 411 kts 169°
2026-05-08 08:54 44.73609 8.37053 31220 ft 408 kts 169°
2026-05-08 08:54 44.70871 8.38079 31661 ft 406 kts 169°
2026-05-08 08:55 44.68142 8.39100 32058 ft 405 kts 169°
2026-05-08 08:55 44.65420 8.40118 32465 ft 404 kts 169°
2026-05-08 08:55 44.62714 8.41128 32904 ft 402 kts 169°
2026-05-08 08:55 44.60019 8.42134 33339 ft 400 kts 169°
2026-05-08 08:56 44.57332 8.43136 33733 ft 399 kts 169°
2026-05-08 08:56 44.54651 8.44135 34111 ft 397 kts 169°
2026-05-08 08:56 44.51976 8.45130 34344 ft 399 kts 169°
2026-05-08 08:56 44.49283 8.46130 34499 ft 402 kts 169°
2026-05-08 08:57 44.46572 8.47138 34725 ft 403 kts 169°
2026-05-08 08:57 44.43858 8.48146 34955 ft 404 kts 169°
2026-05-08 08:57 44.38386 8.50260 35011 ft 412 kts 164°
2026-05-08 08:58 44.33102 8.53404 35004 ft 410 kts 160°
2026-05-08 08:58 44.27950 8.56738 35013 ft 408 kts 160°
2026-05-08 08:59 44.22779 8.59998 35028 ft 408 kts 160°
2026-05-08 08:59 44.17573 8.63208 35024 ft 410 kts 161°
2026-05-08 09:00 44.12349 8.66403 35018 ft 411 kts 161°
2026-05-08 09:00 44.07128 8.69587 35004 ft 413 kts 160°
2026-05-08 09:01 44.01868 8.72791 35023 ft 411 kts 161°
2026-05-08 09:01 43.96705 8.75933 35019 ft 404 kts 161°
2026-05-08 09:02 43.91554 8.79058 35017 ft 405 kts 161°
2026-05-08 09:02 43.86393 8.82181 35011 ft 405 kts 160°
2026-05-08 09:03 43.81214 8.85312 35022 ft 406 kts 160°
2026-05-08 09:03 43.76020 8.88447 35020 ft 408 kts 160°
2026-05-08 09:04 43.70811 8.91585 35019 ft 409 kts 160°
2026-05-08 09:04 43.65557 8.94640 35007 ft 408 kts 166°
2026-05-08 09:05 43.60026 8.95910 35013 ft 402 kts 182°
2026-05-08 09:05 43.54415 8.95851 35015 ft 404 kts 183°
2026-05-08 09:06 43.48780 8.95801 35021 ft 406 kts 183°
2026-05-08 09:06 43.43124 8.95797 35016 ft 407 kts 183°
2026-05-08 09:07 43.37447 8.95706 35018 ft 407 kts 187°
2026-05-08 09:07 43.31832 8.95069 35024 ft 408 kts 188°
2026-05-08 09:08 43.26129 8.94353 34999 ft 409 kts 189°
2026-05-08 09:08 43.20452 8.93670 35021 ft 410 kts 188°
2026-05-08 09:09 43.14752 8.93005 35025 ft 412 kts 188°
2026-05-08 09:09 43.09031 8.92344 35023 ft 413 kts 188°
2026-05-08 09:10 43.03354 8.91692 34698 ft 407 kts 189°
2026-05-08 09:10 43.00562 8.91374 34463 ft 400 kts 189°
2026-05-08 09:10 42.97817 8.91059 34222 ft 395 kts 189°
2026-05-08 09:11 42.95097 8.90746 33978 ft 391 kts 189°
2026-05-08 09:11 42.92398 8.90434 33706 ft 388 kts 189°
2026-05-08 09:11 42.89710 8.90124 33429 ft 386 kts 189°
2026-05-08 09:11 42.87045 8.89818 33130 ft 384 kts 190°
2026-05-08 09:12 42.84388 8.89512 32863 ft 383 kts 189°
2026-05-08 09:12 42.81737 8.89208 32604 ft 382 kts 189°
2026-05-08 09:12 42.79089 8.88905 32346 ft 382 kts 189°
2026-05-08 09:12 42.76449 8.88605 32093 ft 381 kts 189°
2026-05-08 09:13 42.73810 8.88305 31832 ft 380 kts 188°
2026-05-08 09:13 42.71177 8.88007 31589 ft 379 kts 188°
2026-05-08 09:13 42.68553 8.87710 31340 ft 378 kts 188°
2026-05-08 09:13 42.65942 8.87416 31061 ft 374 kts 188°
2026-05-08 09:14 42.63368 8.87126 30755 ft 369 kts 188°
2026-05-08 09:14 42.60818 8.86838 30414 ft 367 kts 187°
2026-05-08 09:14 42.58286 8.86551 30075 ft 364 kts 187°
2026-05-08 09:14 42.55770 8.86268 29682 ft 361 kts 187°
2026-05-08 09:15 42.53284 8.85988 29318 ft 357 kts 187°
2026-05-08 09:15 42.50819 8.85710 28964 ft 353 kts 187°
2026-05-08 09:15 42.48383 8.85436 28609 ft 350 kts 187°
2026-05-08 09:15 42.45972 8.85165 28243 ft 347 kts 187°
2026-05-08 09:16 42.43574 8.84895 27902 ft 344 kts 187°
2026-05-08 09:16 42.41205 8.84621 27565 ft 340 kts 187°
2026-05-08 09:16 42.38849 8.84351 27211 ft 338 kts 187°
2026-05-08 09:16 42.36516 8.84094 26863 ft 335 kts 187°
2026-05-08 09:17 42.34198 8.83838 26554 ft 332 kts 187°
2026-05-08 09:17 42.31904 8.83583 26203 ft 330 kts 187°
2026-05-08 09:17 42.29622 8.83329 25876 ft 329 kts 187°
2026-05-08 09:17 42.27336 8.83074 25540 ft 329 kts 187°
2026-05-08 09:18 42.25057 8.82819 25213 ft 330 kts 187°
2026-05-08 09:18 42.22744 8.82559 24893 ft 338 kts 187°
2026-05-08 09:18 42.20372 8.82292 24560 ft 345 kts 187°
2026-05-08 09:18 42.17978 8.82025 24209 ft 345 kts 187°
2026-05-08 09:19 42.15620 8.81763 23859 ft 343 kts 187°
2026-05-08 09:19 42.14015 8.81584 23613 ft 342 kts 187°
2026-05-08 09:19 42.10879 8.81240 23107 ft 340 kts 187°
2026-05-08 09:19 42.09295 8.81064 22848 ft 339 kts 187°
2026-05-08 09:20 42.06954 8.80803 22495 ft 336 kts 186°
2026-05-08 09:20 42.04629 8.80545 22143 ft 334 kts 186°
2026-05-08 09:20 42.02325 8.80289 21817 ft 331 kts 186°
2026-05-08 09:20 42.00036 8.80035 21474 ft 328 kts 186°
2026-05-08 09:21 41.97777 8.79785 21152 ft 326 kts 186°
2026-05-08 09:21 41.95525 8.79535 20811 ft 324 kts 186°
2026-05-08 09:22 41.82239 8.78066 18864 ft 315 kts 185°
2026-05-08 09:23 41.80055 8.77826 18540 ft 315 kts 185°
2026-05-08 09:23 41.77876 8.77586 18202 ft 314 kts 185°
2026-05-08 09:23 41.75713 8.77289 17838 ft 312 kts 188°
2026-05-08 09:23 41.73565 8.76888 17493 ft 311 kts 188°
2026-05-08 09:24 41.71426 8.76461 17155 ft 309 kts 189°
2026-05-08 09:24 41.69304 8.76034 16835 ft 308 kts 188°
2026-05-08 09:24 41.67189 8.75613 16519 ft 307 kts 188°
2026-05-08 09:24 41.65073 8.75197 16178 ft 307 kts 189°
2026-05-08 09:25 41.62968 8.74787 15858 ft 305 kts 188°
2026-05-08 09:25 41.60873 8.74380 15539 ft 304 kts 188°
2026-05-08 09:25 41.58785 8.73977 15226 ft 303 kts 188°
2026-05-08 09:25 41.56707 8.73577 14911 ft 302 kts 188°
2026-05-08 09:26 41.54629 8.73178 14596 ft 301 kts 187°
2026-05-08 09:26 41.52563 8.72781 14282 ft 300 kts 187°
2026-05-08 09:26 41.50501 8.72386 13961 ft 300 kts 187°
2026-05-08 09:26 41.48460 8.71995 13630 ft 300 kts 187°
2026-05-08 09:27 41.46397 8.71602 13288 ft 299 kts 187°
2026-05-08 09:27 41.44339 8.71209 12956 ft 298 kts 187°
2026-05-08 09:27 41.42293 8.70817 12627 ft 296 kts 187°
2026-05-08 09:27 41.40256 8.70427 12304 ft 295 kts 187°
2026-05-08 09:28 41.38231 8.70040 11988 ft 293 kts 187°
2026-05-08 09:28 41.36217 8.69656 11674 ft 292 kts 187°
2026-05-08 09:28 41.34204 8.69273 11360 ft 291 kts 187°
2026-05-08 09:28 41.32233 8.68658 10988 ft 294 kts 199°
2026-05-08 09:29 41.30352 8.67600 10657 ft 293 kts 203°
2026-05-08 09:29 41.28502 8.66457 10350 ft 293 kts 204°
2026-05-08 09:29 41.26662 8.65324 10123 ft 288 kts 204°
2026-05-08 09:29 41.24860 8.64234 9928 ft 283 kts 203°
2026-05-08 09:30 41.23061 8.63164 9621 ft 284 kts 202°
2026-05-08 09:30 41.21239 8.62094 9335 ft 288 kts 202°
2026-05-08 09:30 41.19395 8.61020 9021 ft 290 kts 202°
2026-05-08 09:30 41.17552 8.59951 8714 ft 288 kts 202°
2026-05-08 09:31 41.15725 8.58892 8419 ft 286 kts 202°
2026-05-08 09:31 41.13906 8.57840 8125 ft 284 kts 202°
2026-05-08 09:31 41.12102 8.56800 7833 ft 282 kts 202°
2026-05-08 09:31 41.10310 8.55766 7549 ft 280 kts 202°
2026-05-08 09:32 41.08527 8.54739 7263 ft 279 kts 202°
2026-05-08 09:32 41.06748 8.53715 6979 ft 278 kts 201°
2026-05-08 09:32 41.04975 8.52702 6692 ft 277 kts 201°
2026-05-08 09:32 41.03218 8.51754 6406 ft 276 kts 200°
2026-05-08 09:33 41.01413 8.50803 6095 ft 276 kts 200°
2026-05-08 09:33 40.99664 8.49883 5802 ft 275 kts 200°
2026-05-08 09:33 40.97891 8.48949 5517 ft 274 kts 200°
2026-05-08 09:33 40.96127 8.48018 5233 ft 273 kts 200°
2026-05-08 09:34 40.94365 8.47087 4945 ft 272 kts 200°
2026-05-08 09:34 40.92609 8.46158 4661 ft 271 kts 200°
2026-05-08 09:34 40.90865 8.45236 4454 ft 266 kts 201°
2026-05-08 09:34 40.89176 8.44343 4329 ft 258 kts 201°
2026-05-08 09:35 40.87521 8.43523 4210 ft 251 kts 198°
2026-05-08 09:35 40.85903 8.42713 4106 ft 247 kts 201°
2026-05-08 09:35 40.84326 8.41812 3987 ft 247 kts 204°
2026-05-08 09:35 40.82753 8.40867 3772 ft 250 kts 204°
2026-05-08 09:36 40.81191 8.39921 3637 ft 244 kts 203°
2026-05-08 09:36 40.79646 8.38997 3358 ft 244 kts 204°
2026-05-08 09:36 40.78101 8.38054 3055 ft 243 kts 204°
2026-05-08 09:36 40.76573 8.37118 2700 ft 240 kts 205°
2026-05-08 09:37 40.75076 8.36194 2395 ft 235 kts 203°
2026-05-08 09:37 40.73591 8.35339 2081 ft 231 kts 204°
2026-05-08 09:37 40.72143 8.34469 1786 ft 224 kts 204°
2026-05-08 09:37 40.70767 8.33636 1479 ft 212 kts 203°
2026-05-08 09:38 40.69464 8.32850 1219 ft 200 kts 204°
2026-05-08 09:38 40.68238 8.32110 958 ft 187 kts 203°
2026-05-08 09:38 40.67106 8.31425 693 ft 171 kts 204°
2026-05-08 09:38 40.66065 8.30791 463 ft 160 kts 203°
2026-05-08 09:39 40.65071 8.30202 271 ft 153 kts 203°
2026-05-08 09:39 40.64122 8.29624 90 ft 144 kts 204°
2026-05-08 09:39 40.63329 8.29153 85 ft 104 kts 205°
2026-05-08 09:39 40.62824 8.28846 73 ft 45 kts 205°
2026-05-08 09:40 40.62633 8.28843 73 ft 18 kts 168°
2026-05-08 09:40 40.62616 8.28961 71 ft 16 kts 45°
2026-05-08 09:40 40.62712 8.29023 74 ft 15 kts 22°
2026-05-08 09:40 40.62806 8.29075 77 ft 14 kts 23°
2026-05-08 09:41 40.62853 8.29157 76 ft 12 kts 81°
2026-05-08 09:41 40.62877 8.29258 70 ft 11 kts 62°
2026-05-08 09:41 40.62940 8.29300 75 ft 10 kts 22°
2026-05-08 09:41 40.63003 8.29338 81 ft 10 kts 25°
2026-05-08 09:42 40.63061 8.29373 80 ft 5 kts 30°
2026-05-08 09:42 40.63061 8.29418 83 ft 6 kts 116°
2026-05-08 09:42 40.63047 8.29454 80 ft 0 kts 116°